Theta_e
319 318 317 317 316 315 315 315 315 315 315 315 315 315 314 314 314 315 316 316 315 316 316 317 319 320 320 314 313 327 340 333 319 317 317 318 315 314 309 310 312 310 312 314 316 317 316
318 317 316 316 315 315 315 314 314 314 315 314 314 314 313 313 314 315 315 315 315 315 316 319 321 319 315 308 324 328 326 318 318 317 319 319 315 315 312 312 311 313 312 312 314 314 316
320 317 317 316 315 314 313 313 313 313 313 314 314 313 313 313 314 314 314 314 314 315 317 322 322 321 316 313 322 324 329 320 320 320 317 320 319 315 316 313 317 314 309 312 311 313 313
317 317 316 314 314 313 312 313 312 312 312 313 313 312 312 313 314 314 314 314 314 315 320 322 322 320 312 323 325 321 327 322 322 322 321 322 320 318 316 317 314 310 310 305 311 312 313
314 314 313 313 313 312 312 312 312 311 312 312 312 311 312 312 313 314 313 312 314 318 325 322 320 319 310 323 318 321 325 320 320 321 322 321 320 315 315 310 308 309 302 304 307 313 312
313 312 312 313 312 311 311 311 311 310 311 311 312 311 311 312 313 312 312 312 321 320 320 322 319 314 317 313 318 319 323 323 318 317 315 316 315 310 310 307 299 303 304 305 306 311 312
312 312 312 312 311 311 310 310 310 310 310 310 310 311 311 311 312 311 311 320 318 317 319 313 312 310 313 317 321 316 319 320 318 313 308 313 307 304 308 310 309 308 307 306 309 314 311
312 312 311 311 311 310 310 310 310 310 310 310 310 311 311 311 311 310 312 316 311 312 305 315 319 317 316 317 313 316 319 314 314 306 310 309 304 310 312 311 309 308 306 306 310 313 312
311 311 311 310 310 310 310 310 309 310 310 310 310 310 310 310 309 313 313 314 317 316 307 309 313 315 316 314 312 313 316 315 312 307 308 306 309 312 310 309 307 307 306 306 306 310 312
311 312 312 311 311 311 310 309 308 309 309 309 310 309 309 309 309 314 313 316 316 319 303 306 310 313 316 313 308 316 317 315 312 308 308 308 312 311 309 307 309 304 309 307 306 305 301
310 311 311 311 310 310 310 309 308 308 309 309 309 309 309 308 308 311 314 315 315 318 294 310 311 320 317 311 310 310 318 315 309 310 310 306 308 309 308 308 310 306 310 309 307 305 305
310 310 310 309 308 309 310 310 308 309 309 309 309 309 308 310 312 314 316 314 313 301 293 307 312 309 310 311 310 312 311 316 315 310 311 309 314 312 311 312 311 311 309 309 309 305 298
309 309 310 310 308 309 310 309 309 309 309 308 309 308 306 308 309 314 314 309 298 294 308 305 307 309 308 308 308 308 306 307 304 302 303 308 308 312 313 308 311 309 307 299 297 297 296
307 308 309 309 309 309 308 309 309 309 308 308 307 305 309 311 316 315 312 302 292 301 303 310 309 309 305 308 308 308 305 303 308 307 304 301 300 308 312 308 306 306 306 300 294 296 299
306 306 306 308 308 308 308 308 308 308 307 307 305 310 311 315 317 315 305 294 295 300 305 306 307 304 305 308 308 307 306 304 307 308 304 301 302 312 311 312 310 307 304 309 305 306 300
306 307 306 306 307 308 308 308 309 308 307 306 302 306 309 316 318 310 300 294 300 304 306 307 301 305 302 306 305 306 305 309 308 310 312 308 303 310 311 312 311 309 312 303 305 297 295
307 306 306 306 307 307 307 308 309 308 306 305 304 305 314 317 315 304 295 298 301 305 305 303 303 303 304 304 307 306 306 309 312 310 312 309 309 306 310 306 305 306 304 307 309 305 299
308 307 306 306 307 308 308 308 308 307 305 305 305 299 315 316 303 303 298 301 301 303 307 304 306 305 304 305 304 306 306 308 313 313 307 311 311 303 305 311 311 309 307 307 303 303 306
308 307 306 306 307 308 308 307 308 307 306 301 300 302 313 313 296 299 303 303 304 303 303 303 303 306 306 303 302 306 309 314 313 312 311 313 308 301 302 308 310 306 307 309 312 313 306
307 306 306 305 306 306 307 306 307 307 306 302 301 296 303 306 305 300 299 301 302 307 304 304 303 305 304 302 305 303 306 312 313 312 318 319 313 307 301 304 307 305 305 307 310 304 304
306 305 305 305 305 306 305 306 306 307 307 302 301 298 302 297 300 302 303 301 299 302 307 305 303 303 302 300 301 301 306 310 313 313 312 320 310 309 307 308 308 307 306 306 305 307 304
304 304 304 305 305 305 305 306 306 307 307 300 298 299 303 300 301 300 300 300 301 300 304 303 302 303 304 303 303 301 305 308 310 312 311 318 308 310 304 307 307 306 308 308 307 307 307
304 304 304 304 304 305 305 305 306 306 306 301 305 305 300 297 298 296 297 300 301 303 304 306 306 303 302 304 307 308 310 313 313 312 314 315 310 308 302 306 306 302 306 308 309 310 309
304 304 304 304 304 304 305 305 306 307 306 301 301 300 296 292 296 296 297 299 298 300 298 304 308 305 308 312 312 312 309 308 312 315 317 313 313 310 304 306 296 307 313 311 309 311 312
304 304 304 304 304 304 304 305 305 306 307 302 302 299 296 292 296 296 297 298 300 300 300 301 307 311 318 314 308 305 303 304 306 311 314 317 315 305 303 302 305 307 311 310 308 309 314
303 303 303 303 304 304 304 305 305 305 306 304 301 303 297 293 293 298 296 298 295 296 298 303 311 313 314 308 305 299 296 300 299 307 314 314 309 310 305 300 297 308 313 317 317 305 315
303 303 303 303 303 304 304 304 305 305 305 303 301 310 301 293 298 298 295 295 299 298 299 302 304 307 312 304 300 298 299 304 300 303 306 305 304 306 305 301 305 314 314 315 303 306 319
302 302 302 302 302 303 304 304 305 305 305 303 300 308 302 296 298 300 300 296 295 297 294 299 301 306 305 301 300 301 300 304 304 309 309 304 300 305 308 302 298 315 313 305 315 321 318
302 302 302 302 302 302 303 304 304 304 305 304 298 307 309 299 298 303 303 303 300 299 297 301 298 299 311 307 304 306 304 306 306 299 312 304 306 306 309 307 315 318 320 324 326 320 318
Wind_Speed
12 13 15 15 16 16 17 17 17 17 18 19 20 21 21 22 22 21 20 20 21 20 19 16 12 9 7 10 17 11 11 11 11 12 16 17 14 14 17 18 20 19 20 20 16 9 8
9 10 12 14 14 15 16 17 17 17 17 19 20 21 22 23 22 22 21 21 20 19 18 14 9 5 7 15 4 17 13 13 13 17 17 18 13 14 16 19 19 16 18 16 22 12 10
11 10 12 13 12 15 16 17 17 18 18 18 19 20 22 23 23 23 23 22 21 19 17 13 7 7 12 19 5 5 12 14 15 17 16 15 15 16 10 15 16 14 14 13 19 11 17
12 13 13 13 13 14 15 16 18 19 19 19 19 21 22 24 24 24 25 24 22 19 14 6 6 8 10 12 16 10 11 14 14 15 16 12 14 11 16 16 12 13 13 16 17 17 16
11 11 12 12 13 15 16 17 18 19 20 20 21 22 23 25 26 26 26 26 23 15 9 4 7 10 13 1 12 11 14 15 16 13 12 10 6 13 15 14 14 14 13 19 20 19 11
10 11 11 12 13 14 15 17 18 19 20 21 21 23 24 26 27 26 28 27 7 7 6 9 12 9 17 14 14 16 15 15 12 11 12 9 7 13 15 14 13 16 19 14 15 13 12
8 9 10 11 13 14 15 17 18 19 19 21 23 23 25 27 28 26 17 5 5 7 12 14 11 13 4 17 8 17 17 16 13 13 16 15 12 15 18 17 20 21 15 12 15 12 12
9 8 8 9 11 13 15 16 18 19 20 21 23 24 27 28 30 29 10 9 7 8 13 18 25 22 18 6 9 13 18 17 17 17 17 16 17 19 19 18 16 17 11 16 15 6 8
8 9 10 10 11 12 14 16 17 18 18 20 21 23 27 30 32 13 10 6 9 12 9 15 24 24 22 14 15 17 20 21 17 19 19 19 20 21 19 17 9 11 13 15 16 13 10
10 10 10 11 12 13 15 16 18 18 19 19 21 22 25 32 10 12 6 10 10 9 8 11 15 22 24 18 20 17 21 21 17 20 21 20 22 17 14 17 10 15 16 15 16 15 12
10 10 11 10 11 12 14 16 18 18 19 19 20 21 22 16 13 9 11 12 11 8 7 9 11 3 18 25 4 24 19 20 24 20 14 20 23 20 14 15 12 16 15 13 16 15 15
11 11 10 11 12 13 12 13 16 17 19 20 22 21 20 12 8 15 14 12 9 7 10 8 10 10 18 23 25 13 22 22 20 23 20 21 20 17 20 15 16 15 11 13 8 11 13
11 11 12 12 12 12 13 14 16 18 19 21 23 24 17 10 8 15 13 8 7 10 7 9 13 12 18 19 23 22 22 24 22 20 22 21 22 19 12 12 15 15 10 9 11 11 13
8 10 12 12 12 12 13 14 16 18 20 23 24 30 10 11 10 12 8 7 12 11 22 11 4 10 17 18 21 24 21 22 25 25 15 19 18 22 14 18 17 17 14 11 12 12 8
9 9 10 12 13 13 13 14 16 17 19 22 29 9 11 12 14 8 8 13 9 15 16 15 9 15 16 18 16 24 22 22 23 25 22 17 22 17 25 14 20 17 16 19 18 17 13
11 11 12 11 12 12 14 14 15 16 19 20 11 10 13 15 9 7 10 21 17 24 25 14 14 14 17 18 21 19 25 22 23 25 22 20 19 17 18 22 18 20 16 14 10 11 14
12 11 12 13 12 12 13 14 14 15 20 22 8 7 6 12 7 9 14 18 22 27 28 22 15 19 22 22 19 21 21 24 23 25 23 22 17 16 16 15 18 13 17 15 10 10 10
13 11 12 13 12 12 12 12 11 12 18 15 8 7 9 7 8 9 16 21 20 25 24 22 21 20 21 23 24 21 23 22 21 22 25 21 10 12 21 19 19 19 19 19 10 13 10
13 12 12 11 11 11 10 9 9 9 9 7 6 9 6 7 9 13 18 24 25 25 25 27 23 19 19 22 22 19 22 18 18 18 20 16 14 11 17 15 13 15 21 14 11 10 11
11 11 11 11 11 10 10 8 8 9 7 7 6 6 8 9 12 18 20 21 23 24 26 27 26 22 21 22 21 21 22 19 16 15 7 7 10 14 12 17 15 19 18 17 14 12 13
10 11 11 11 10 10 10 9 8 7 8 6 6 6 10 6 11 11 15 18 23 23 22 22 24 26 21 21 23 23 21 22 20 5 4 4 11 15 19 23 18 17 20 20 20 13 12
10 13 11 10 9 9 9 9 9 7 7 7 7 7 8 12 16 17 13 18 22 25 27 22 25 21 22 22 22 21 22 20 15 13 14 10 10 13 19 21 21 21 18 23 20 19 19
12 10 10 8 8 9 10 9 9 8 5 6 5 12 6 8 13 13 14 19 18 22 26 26 25 22 25 25 22 20 21 15 19 4 13 14 12 14 18 21 21 22 20 15 15 18 16
12 12 11 10 9 8 9 11 10 9 9 7 8 9 8 12 13 14 16 17 18 21 23 33 30 21 22 21 22 21 25 19 21 12 19 16 15 12 13 17 24 15 18 17 17 12 11
11 12 10 10 10 10 10 10 11 10 10 8 8 6 10 12 14 15 16 15 16 15 22 29 28 21 3 10 10 15 14 17 23 24 15 19 15 12 13 16 17 18 5 13 16 17 12
10 11 11 10 9 10 10 9 9 8 7 8 7 5 7 9 12 8 13 13 12 9 20 28 18 16 21 9 12 17 16 16 19 24 10 4 7 12 14 18 18 4 5 17 2 10 9
10 11 11 10 9 11 10 9 8 9 7 8 7 4 5 10 17 17 11 9 7 6 11 15 11 16 24 11 13 14 16 20 18 25 15 11 2 22 15 10 0 7 7 12 7 0 10
8 8 10 10 10 8 8 9 10 8 10 7 7 5 5 8 16 21 18 17 14 10 5 12 10 15 16 10 13 13 13 17 20 20 17 7 3 14 14 10 7 8 11 12 5 4 10
9 9 11 11 10 9 9 10 11 10 10 9 10 4 5 6 13 22 19 18 20 14 9 4 8 19 9 3 10 6 7 5 6 15 12 13 13 14 8 7 27 16 7 11 10 10 9
Wind_Direction
24 24 16 12 8 6 3 1 358 355 352 350 347 345 341 337 333 329 325 322 320 317 312 304 297 289 266 230 252 129 152 148 173 197 217 235 232 237 247 244 250 246 265 266 276 284 273
18 18 16 9 7 1 359 357 356 353 350 348 345 342 338 334 329 326 322 319 316 311 306 297 280 254 242 258 203 150 174 168 193 194 218 239 236 240 254 252 266 250 243 268 270 271 242
12 17 12 5 1 359 357 354 354 351 348 345 343 338 335 331 327 324 321 317 314 309 302 293 232 233 260 244 339 172 170 191 201 206 230 240 255 263 256 275 272 270 272 279 250 259 259
8 357 358 359 1 0 356 354 352 349 346 344 341 336 332 329 325 322 319 316 310 304 295 278 200 233 262 239 252 231 195 194 209 212 238 263 245 284 267 276 274 262 255 259 244 229 251
6 358 354 355 359 358 355 353 350 348 345 343 340 336 331 326 323 322 318 311 303 289 265 205 211 226 253 163 222 202 212 203 205 214 231 271 241 245 256 251 262 233 243 236 257 199 221
2 357 355 354 358 356 351 350 348 346 344 343 339 335 330 326 322 322 320 296 278 296 223 203 262 247 239 224 204 219 215 216 203 213 222 221 236 239 238 242 238 234 216 251 251 168 190
0 359 358 357 354 353 349 348 345 344 342 341 339 334 329 325 321 320 331 313 211 196 233 235 200 226 113 226 170 197 204 210 194 210 216 204 221 226 234 231 251 271 303 269 250 179 178
346 349 352 352 349 347 345 345 343 342 340 338 336 333 328 324 319 315 286 276 43 325 291 257 247 251 257 221 206 221 198 201 199 210 213 226 225 239 242 250 245 258 280 284 295 190 164
338 336 337 339 339 336 339 341 341 339 337 335 334 333 328 324 318 295 302 342 320 321 272 269 230 229 230 214 226 204 205 205 207 216 215 228 226 216 246 250 236 268 267 262 276 282 170
327 321 318 326 327 326 331 335 337 336 335 332 331 332 331 330 300 337 303 9 315 348 276 249 200 214 214 206 228 235 203 209 223 221 226 233 243 259 209 244 232 241 245 256 269 265 266
322 322 331 329 329 329 326 329 332 332 330 328 326 327 329 323 309 298 351 322 328 276 278 99 172 146 197 201 204 206 213 208 223 220 221 229 232 239 208 249 227 257 261 285 231 263 272
317 314 317 318 327 329 326 323 326 327 326 324 321 321 330 308 235 265 280 320 283 234 237 164 147 199 203 196 219 209 210 205 230 240 239 245 246 223 246 217 242 250 241 265 288 255 250
320 320 316 311 320 326 326 320 321 322 322 319 316 310 303 288 254 348 326 282 236 237 238 188 187 204 215 199 212 238 192 201 214 220 235 234 240 248 214 239 227 227 223 241 231 231 242
311 316 318 316 313 323 323 321 318 319 320 316 316 306 258 237 245 251 275 242 242 262 233 308 262 223 208 214 206 224 198 215 209 226 228 229 224 234 179 226 232 210 226 239 235 222 254
300 310 316 312 314 318 322 321 318 318 318 315 310 291 257 227 217 231 241 224 228 232 288 304 241 248 230 221 213 216 219 210 219 219 227 239 231 224 222 200 236 195 218 246 268 286 287
294 300 307 309 314 312 316 315 315 318 316 319 316 292 256 244 167 207 230 235 249 249 285 303 281 275 244 228 220 211 221 215 228 218 223 247 265 248 220 202 219 251 213 220 237 260 275
271 280 295 304 311 310 313 312 313 320 315 311 266 261 84 129 148 219 235 237 246 259 276 277 255 271 277 283 230 226 226 225 210 224 219 230 253 259 217 195 211 215 243 254 237 235 237
266 269 284 295 301 304 307 308 311 324 328 304 280 259 124 166 221 233 240 250 259 270 274 253 268 255 279 290 292 268 222 239 221 209 226 211 237 238 258 212 212 236 217 232 242 238 261
257 269 280 287 295 297 304 306 315 325 344 320 266 259 205 209 247 246 255 258 249 255 253 264 246 243 262 274 282 281 279 232 237 206 217 205 218 228 257 260 212 218 246 222 231 267 270
252 261 269 286 293 295 304 302 313 314 328 310 283 271 204 199 251 269 281 282 274 253 245 256 258 251 238 255 260 268 274 271 256 200 216 239 208 217 238 244 208 212 229 239 219 211 229
255 268 280 289 276 283 300 299 307 314 320 294 245 255 290 282 222 244 253 262 273 267 258 244 250 251 245 242 253 249 250 262 253 140 173 179 226 214 225 256 269 207 222 229 235 234 249
260 272 270 280 278 277 290 289 290 302 313 266 297 335 336 301 294 282 275 271 267 262 271 251 245 246 252 248 236 248 243 250 271 181 194 213 227 227 236 236 247 261 235 211 222 230 222
262 248 256 267 285 289 285 290 284 287 294 272 294 315 280 278 274 271 263 264 280 314 272 275 276 228 245 248 245 255 259 281 303 175 246 204 198 212 232 237 252 248 248 243 219 224 221
249 251 259 264 265 280 286 287 273 269 265 289 302 315 280 277 266 265 281 284 313 300 290 295 279 297 231 251 246 237 255 264 269 231 235 208 203 209 226 223 236 244 240 231 251 243 222
244 250 257 267 263 266 275 282 275 266 252 268 281 284 291 279 277 282 281 281 297 308 303 292 287 269 94 278 236 232 240 240 244 258 214 199 215 212 227 232 242 237 249 288 233 232 160
244 245 250 264 273 263 270 279 274 254 249 264 267 239 271 280 266 273 321 283 297 345 311 296 251 296 300 242 218 220 219 219 226 239 202 230 342 210 208 239 239 169 352 335 257 211 147
241 254 254 259 281 260 262 275 266 245 234 263 270 249 261 266 269 281 273 317 296 296 288 280 336 269 267 225 233 212 229 222 224 223 176 175 236 248 219 228 263 88 7 10 235 170 37
257 256 252 251 267 266 264 272 270 266 248 252 266 254 227 274 277 286 282 282 288 282 298 317 312 205 232 220 228 234 227 218 237 230 209 165 41 227 222 211 211 178 119 155 227 75 90
255 252 251 247 258 266 267 277 256 256 258 241 267 249 257 245 285 304 291 279 274 280 312 326 295 296 322 315 235 291 272 247 246 217 222 179 166 232 292 248 143 179 160 116 140 136 134